AirNav   Air Wisconsin pilot careers
 
 942 users online  

Z81 Salmon Lake Airport
Salmon Lake, Alaska, USA

GOING TO SALMON LAKE?


FAA INFORMATION EFFECTIVE 24 MAY 2018

Location

FAA Identifier: Z81
Lat/Long: 64-54-32.4350N / 165-00-52.9800W
64-54.540583N / 165-00.883000W
64.9090097 / -165.0147167
(estimated)
Elevation: 509 ft. / 155 m (estimated)
Variation: 17E (1985)
Time zone: UTC -8 (UTC -9 during Standard Time)
Zip code: 99762

Airport Operations

Airport use: Open to the public
Activation date: 07/1958
Control tower: no
ARTCC: ANCHORAGE CENTER
FSS: NOME FLIGHT SERVICE STATION [ 443-2291 (local call from the AIRPORT)]
Alternate FSS: FAI FAIRBANKS FLIGHT SERVICE STATION [1-866-248-6516]
NOTAMs facility: OME (NOTAM-D service available)
Attendance: UNATNDD
Wind indicator: yes
Segmented circle: no

Airport Communications

CTAF: 122.9

Nearby radio navigation aids

VOR radial/distance  VOR name  Freq  Var
OMEr003/26.2NOME VOR/DME115.0011E

 
NDB name  Hdg/Dist  Freq  Var  ID
FORT DAVIS006/26.052911EFDV ..-. -.. ...-

Airport Services

Airframe service: NONE
Powerplant service: NONE
Bottled oxygen: NONE
Bulk oxygen: NONE

Runway Information

Runway 15/33

Dimensions: 2000 x 55 ft. / 610 x 17 m
Surface: gravel, in good condition
RY SOFT WHEN WET AND CONTAINS SEVERAL 6 IN ROCKS.
Runway edge markings: RY 15/33 MARKED WITH CONES & THLD PANELS.
Gradient: NORTHWEST
Operational restrictions: RY 15/33 SLOPES UPHILL SE TO NW. RY 15 THLD APRXLY 40 FT HIGHER.
RUNWAY 15  RUNWAY 33
Latitude: 64-54.696500N64-54.384667N
Longitude: 165-01.003167W165-00.762833W
Elevation: 509.0 ft.476.0 ft.
Gradient: 1.7% UP
Traffic pattern: leftleft
Obstructions: 640 ft. hill, 3960 ft. from runway, 500 ft. left of centerline, 6:1 slope to clearnone

Airport Ownership and Management from official FAA records

Ownership: Publicly-owned
Owner: ALASKA DOT&PF NORTHERN REGION
2301 PEGER RD
FAIRBANKS, AK 99709
Phone 907-451-5230
Manager: JOSEPH JOHNSON
PO BOX 1048
NOME, AK 99762
Phone 907-443-3431

Additional Remarks

END RWY 33 ROCKY.
RY NOT MAINTAINED & CONDITION NOT MONITORED, RECOMMEND VISUAL INSPECTION PRIOR TO LANDING.
RY USED AS A ROAD.
HIGH TERRAIN ALL QUADRANTS.

Instrument Procedures

There are no published instrument procedures at Z81.

Some nearby airports with instrument procedures:

PAOM - Nome Airport (26 nm SW)
PATE - Teller Airport (39 nm NW)
PAWM - White Mountain Airport (43 nm E)
PFKT - Brevig Mission Airport (45 nm NW)
PAGL - Golovin Airport (56 nm E)
 
Loc | Ops | Rwys | IFR | FBO | Links
Com | Nav | Svcs | Stats | Notes

Crowley
 
Area around Z81 (Salmon Lake Airport)
 
Road maps at: MapQuest Bing Google
 
Aerial photo
No photo
 
Sectional chart

 
Airport distance calculator
Flying to Salmon Lake Airport? Find the distance to fly.

From to Z81

Sunrise and sunset
Times for 17-Jun-2018
 Local
(UTC-8)
 Zulu
(UTC)
Morning civil twilight++
Sunrise04:0612:06
Sunset01:5609:56
Evening civil twilight++

Current date and time
Zulu (UTC)  18-Jun-2018 01:55:10
Local (UTC-8)  17-Jun-2018 17:55:10
 
METAR
PAOM 
27nm SW 
180053Z 22006KT 10SM SCT100 BKN200 12/03 A2963 RMK AO2 SLP034 T01220028 $
PATE 
39nm NW 
180056Z AUTO 03009KT 10SM BKN075 16/01 A2964 RMK AO2 SLP042 T01610011
PAWM 
43nm E 
180056Z AUTO 15012KT 10SM OVC050 12/08 A2965 RMK AO2 RAB01E51 SLP043 T01170083 PNO $
PFKT 
45nm NW 
180056Z AUTO 02012G18KT 10SM BKN070 16/01 A2966 RMK AO2 SLP042 T01610011
TAF
PAOM 
27nm SW 
171730Z 1718/1818 06008KT P6SM SKC FM172100 09010KT P6SM SCT050 BKN100 FM180000 12010KT P6SM VCSH SCT035 BKN050 BKN100 FM180300 VRB06KT P6SM -RA SCT035 BKN050 OVC100
NOTAMs
Click for the latest NOTAMs
NOTAMs are issued by the DoD/FAA and will open in a separate window not controlled by AirNav.

 

 
 

Would you like to see your business listed on this page?

 If your business provides an interesting product or service to pilots, flight crews, aircraft, or users of the Salmon Lake Airport, you should consider listing it here.  To start the listing process, click on the button below
 
Add a business
 

Other Pages about Salmon Lake Airport

Update a link
 
Copyright © AirNav, LLC. All rights reserved. Privacy Policy  Contact